Regional Weather Roundup
Issued by NWS Jackson, KY

Home | Current Version | Previous Version | Graphics & Text | Print | Product List | Glossary On
Versions: 1 2 3 4 5 6 7 8 9 10 11 12 13 14 15 16 17 18 19 20 21 22 23 24 25 26 27
000
ASUS43 KJKL 260510
RWRJKL

EAST KENTUCKY HOURLY WEATHER ROUNDUP
NATIONAL WEATHER SERVICE JACKSON KY
100 AM EDT TUE JUL 26 2016

NOTE: "FAIR" INDICATES FEW OR NO CLOUDS BELOW 12,000 FEET WITH
NO SIGNIFICANT WEATHER AND/OR OBSTRUCTIONS TO VISIBILITY.

* THESE REPORTS ARE NOT UNDER NWS QUALITY CONTROL AND MAY NOT
  REPORT WEATHER SUCH AS PRECIPITATION AND FOG.

KYZ079-080-083-085-087-088-110-112-115-119-120-260600
...EASTERN KENTUCKY...

CITY           SKY/WX    TMP DP  RH WIND       PRES   REMARKS
JACKSON        CLOUDY    74  72  93 CALM      30.06R
LONDON         PTCLDY    72  68  87 CALM      30.05S
SOMERSET*      CLOUDY    72  72 100 CALM      30.05R
MONTICELLO*    CLEAR    N/A N/A N/A W5        30.05F
WILLIAMSBURG*  PTCLDY    72  72 100 SE5       30.05F
MIDDLESBORO*   CLOUDY    74  71  89 W3        30.07S
HARLAN APT*      N/A     72  68  88 CALM      30.08F
PIKE CO APT*     N/A     73  73 100 SE5       30.06S
BIG SANDY APT* PTCLDY    75  74  99 CALM      30.04F
MOREHEAD APT*  PTCLDY    73  72  94 S3        30.05S
ASHLAND*       PTCLDY    73  72  94 CALM      29.99S
$$

KYZ035-036-041-042-044-050-067-078-099-260600
...CENTRAL KENTUCKY...

CITY           SKY/WX    TMP DP  RH WIND       PRES   REMARKS
MT STERLING*   CLOUDY    75  73  94 SW3       30.04S
FLEMING/MASON* MOCLDY    74  73  96 S3        30.03S
DANVILLE*      CLOUDY    72  72 100 CALM      30.05R
RICHMOND*      CLOUDY    73  72  94 SW3       30.03S
LEXINGTON      CLOUDY    74  72  93 CALM      30.03R
FRANKFORT      FOG       75  73  93 NW3       30.02R VSB 3/4
LOUISVILLE     MOCLDY    78  73  84 SW5       30.01R
LEBANON*         N/A     73  73 100 CALM      30.03S FOG
GLASGOW*       CLOUDY    73  73 100 S3        30.03R
BOWLING GREEN  PTCLDY    76  73  91 CALM      30.02R
$$

KYZ091>093-OHZ055-061-077-WVZ005-015-034-035-042-260600
...SOUTHERN OHIO/WEST VIRGINIA...

CITY           SKY/WX    TMP DP  RH WIND       PRES   REMARKS
COVINGTON      CLOUDY    77  75  93 SW3       30.01S
COLUMBUS       MOCLDY    78  69  73 CALM      29.98S
DAYTON         CLOUDY    76  70  82 N7        30.02S
WILMINGTON     CLOUDY    75  73  93 CALM      30.01S
HUNTINGTON       N/A     75  72  90 CALM      30.01S
CHARLESTON       N/A     78  71  79 SW3       30.01F
PINEVILLE*       N/A     70  67  89 MISG      30.13S
BECKLEY          N/A     70  66  87 CALM      30.12S
BLUEFIELD        N/A     72  67  84 W6        30.15S
LOGAN CO APT*    N/A     75  72  88 CALM      30.05S
$$

VAZ002-007-008-TNZ017-027-036-066-071-260600
...SOUTHWEST VIRGINIA/EAST TENNESSEE...

CITY           SKY/WX    TMP DP  RH WIND       PRES   REMARKS
WISE*            N/A     70  68  94 CALM      30.16R
JONESVILLE*      N/A     72  72 100 CALM      30.09F
ABINGDON*        N/A     73  70  88 E3        30.10F
BRISTOL        CLOUDY    75  71  87 CALM      30.07F
MORRISTOWN*    MOCLDY    81  72  74 CALM      30.05F
SEVIERVILLE*   CLEAR     75  72  88 CALM      30.04F
KNOXVILLE      PTCLDY    82  70  66 N3        30.03
OAK RIDGE      PTCLDY    81  72  74 E3        30.05S
CROSSVILLE     PTCLDY    74  71  91 CALM      30.09F
NASHVILLE      CLEAR     81  71  71 N3        30.02R
$$

...KEY TO REMARKS...
VSB - VISIBILITY IN MILES
WCI - WIND CHILL INDEX
HX  - HEAT INDEX

$$




USA.gov is the U.S. government's official web portal to all federal, state and local government web resources and services.